EW9168 Weather Reports


Display with metric or nautical units.
time (UTC)temp
F
wind
direction
speed
MPH
gust
MPH
rain 1hr
in
rain 24hr
in
rain mn
in
humidity
%
barometer
mb
20260503184021 48 315 1.0 7.0 0.00 0.13 0.01 53 1006.5
20260503183021 49 293 3.0 7.0 0.00 0.13 0.01 50 1006.4
20260503182021 49 293 2.0 7.0 0.00 0.14 0.01 49 1006.3
20260503181021 49 270 2.0 7.0 0.00 0.14 0.01 52 1006.4
20260503180019 49 293 2.0 7.0 0.00 0.14 0.01 54 1006.4
20260503175021 49 338 1.0 7.0 0.00 0.14 0.01 57 1006.3
20260503174017 49 293 2.0 7.0 0.00 0.14 0.01 55 1006.3
20260503173021 49 338 2.0 9.0 0.00 0.15 0.01 59 1006.3
20260503172021 49 293 1.0 5.0 0.00 0.15 0.01 56 1006.3
20260503171021 48 293 2.0 7.0 0.00 0.16 0.01 57 1006.3
20260503131058 42 293 1.0 5.0 0.00 0.17 0.00 91 1008.0
20260503081021 37 0.0 0.0 0.00 0.23 0.00 97 1008.6
20260503072017 37 0.0 0.0 0.00 0.25 0.00 97 1008.9
20260503071041 37 0.0 0.0 0.00 0.26 0.00 97 1009.0
20260503055021 38 0.0 0.0 0.00 0.27 0.00 97 1009.4
20260503054021 38 0.0 0.0 0.00 0.27 0.00 97 1009.5
20260503053041 38 0.0 0.0 0.00 0.27 0.00 97 1009.6
20260503052021 38 0.0 0.0 0.00 0.27 0.00 97 1009.6
20260503051021 38 0.0 0.0 0.00 0.27 0.00 97 1009.7
20260503050017 38 0.0 0.0 0.00 0.27 0.00 96 1009.7
20260503045021 38 0.0 0.0 0.00 0.27 0.00 96 1009.9
20260503044041 38 0.0 0.0 0.00 0.27 0.00 96 1010.1
20260503043042 38 0.0 0.0 0.00 0.27 0.00 96 1010.1
20260503042021 38 0.0 0.0 0.00 0.27 0.00 96 1010.2
20260503041042 39 0.0 0.0 0.00 0.27 0.00 96 1010.2
20260503040018 39 0.0 0.0 0.00 0.27 0.27 95 1010.3
20260503035020 39 0.0 0.0 0.00 0.27 0.27 95 1010.4
20260503034041 40 0.0 0.0 0.00 0.27 0.27 95 1010.7
20260503033020 40 0.0 0.0 0.00 0.27 0.27 95 1010.6
20260503032020 40 0.0 0.0 0.00 0.27 0.27 95 1010.7
20260503031021 40 0.0 0.0 0.00 0.27 0.27 94 1010.8
20260503030017 41 0.0 0.0 0.00 0.27 0.27 94 1010.8
20260503025041 41 0.0 0.0 0.00 0.27 0.27 94 1010.9
20260503024021 41 0.0 0.0 0.00 0.27 0.27 94 1010.9
20260503023021 41 0.0 0.0 0.00 0.27 0.27 94 1010.9
20260503022020 41 0.0 0.0 0.00 0.27 0.27 95 1011.0
20260503021020 41 0.0 0.0 0.00 0.27 0.27 94 1011.1
20260503020021 42 0.0 0.0 0.00 0.27 0.27 95 1011.1
20260503015017 42 0.0 0.0 0.00 0.27 0.27 95 1011.1
20260503014020 42 0.0 0.0 0.01 0.27 0.27 95 1011.1
20260503013020 42 0.0 0.0 0.01 0.27 0.27 95 1011.0
20260503012021 42 0.0 0.0 0.02 0.27 0.27 95 1010.8
20260503011021 42 0.0 0.0 0.02 0.27 0.27 95 1010.8
20260503010020 42 0.0 0.0 0.03 0.27 0.27 95 1010.8
20260503005021 42 0.0 0.0 0.04 0.27 0.27 94 1010.9
20260503004017 42 0.0 0.0 0.09 0.26 0.26 94 1010.7
20260503003041 42 0.0 0.0 0.09 0.26 0.26 93 1010.4
20260503002021 43 0.0 0.0 0.08 0.25 0.25 93 1010.3
20260503001021 43 0.0 0.0 0.08 0.25 0.25 92 1010.3
20260503000021 44 0.0 2.0 0.07 0.24 0.24 90 1010.0
20260502235022 46 0.0 3.0 0.06 0.23 0.23 86 1009.9
20260502234042 47 293 1.0 4.0 0.00 0.17 0.17 82 1010.0
20260502233017 48 0.0 5.0 0.00 0.17 0.17 85 1009.7
20260502232020 48 0.0 1.0 0.00 0.17 0.17 85 1009.6
20260502231021 49 0.0 2.0 0.00 0.17 0.17 82 1009.4
20260502230020 50 0.0 0.0 0.00 0.17 0.17 80 1009.4
20260502225020 50 0.0 0.0 0.00 0.17 0.17 79 1009.3
20260502224021 50 0.0 1.0 0.00 0.17 0.17 76 1009.1
20260502223017 50 0.0 0.0 0.00 0.17 0.17 76 1009.1
20260502222017 50 0.0 2.0 0.00 0.17 0.17 75 1008.9
20260502221020 50 0.0 1.0 0.00 0.17 0.17 75 1009.0
20260502220020 50 0.0 3.0 0.00 0.17 0.17 77 1009.1
20260502215021 50 0.0 2.0 0.00 0.17 0.17 78 1009.2
20260502214021 50 0.0 2.0 0.00 0.17 0.17 77 1009.0
20260502213021 51 0.0 2.0 0.00 0.17 0.17 76 1009.3
20260502212016 51 0.0 1.0 0.00 0.17 0.17 79 1009.3
20260502211020 51 0.0 4.0 0.00 0.17 0.17 77 1009.3
20260502210021 51 0.0 5.0 0.00 0.17 0.17 82 1009.3
20260502205021 49 0.0 3.0 0.00 0.17 0.17 89 1009.3
20260502204021 49 0.0 1.0 0.00 0.17 0.17 86 1009.4
20260502203020 49 0.0 3.0 0.00 0.17 0.17 84 1009.4
20260502202040 50 0.0 2.0 0.00 0.17 0.17 82 1009.4
20260502201016 50 293 1.0 4.0 0.00 0.17 0.17 83 1009.5
20260502200021 51 0.0 0.0 0.00 0.17 0.17 79 1009.5
20260502195020 51 90 1.0 5.0 0.02 0.17 0.17 83 1009.6
20260502194021 50 0.0 1.0 0.02 0.17 0.17 85 1009.7
20260502193020 50 0.0 2.0 0.02 0.17 0.17 83 1009.8
20260502192020 50 0.0 3.0 0.03 0.17 0.17 89 1010.0
20260502191020 49 293 1.0 5.0 0.03 0.17 0.17 89 1009.9
20260502190016 47 0.0 3.0 0.03 0.17 0.16 92 1010.0
20260502185021 47 0.0 3.0 0.01 0.15 0.15 89 1010.3